Stations météo

Publicité
Metz-Nancy-Lorraine, France (7093): Température de l'air & dewpoint: 28.05.2020 02:00:00 - 03.06.2020 02:00:00 (CEST)Metz-Nancy-Lorraine, France (7093): Vitesse du vent & gusts: 28.05.2020 02:00:00 - 03.06.2020 02:00:00 (CEST)Metz-Nancy-Lorraine, France (7093): Direction du vent: 28.05.2020 02:00:00 - 03.06.2020 02:00:00 (CEST)Metz-Nancy-Lorraine, France (7093): reduced air pressure: 28.05.2020 02:00:00 - 03.06.2020 02:00:00 (CEST)Metz-Nancy-Lorraine, France (7093): visibility: 28.05.2020 02:00:00 - 03.06.2020 02:00:00 (CEST)Metz-Nancy-Lorraine, France (7093): Ensoleillement: 28.05.2020 02:00:00 - 03.06.2020 02:00:00 (CEST)Metz-Nancy-Lorraine, France (7093): Quantités de précipitations: 28.05.2020 02:00:00 - 03.06.2020 02:00:00 (CEST)
Date & Time tt [°C] td [°C] ff [km/h] ff [knt] fx [km/h] fx [knt] dd ppp [hPa] vv [km] sd [min] rr [mm]
03.06.2020 02:00:00 16,5 8,2 5 3 7 4 SW 1010,6 41 0 0,0
03.06.2020 01:00:00 15,7 8,9 2 1 5 3 WSW 1011,3 41 0 0,0
03.06.2020 00:00:00 16,7 8,1 3 1 5 3 SW 1011,5 45 0 0,0
02.06.2020 23:00:00 19,1 9,0 0 0 6 3 N 1011,7 36 0 0,0
02.06.2020 22:00:00 21,2 8,8 3 2 11 6 W 1011,6 28 3 0,0
02.06.2020 21:00:00 24,1 8,9 5 3 10 5 W 1011,4 39 53 0,0
02.06.2020 20:00:00 25,9 7,9 5 3 18 10 W 1011,6 49 52 0,0
02.06.2020 19:00:00 27,2 7,1 10 5 17 9 NNW 1011,9 50 60 0,0
02.06.2020 18:00:00 27,6 6,9 5 3 22 12 ESE 1012,4 20 60 0,0
02.06.2020 17:00:00 27,3 7,2 5 3 24 13 SE 1013,2 29 60 0,0
02.06.2020 16:00:00 26,9 7,4 6 3 23 13 NE 1013,8 37 60 0,0
02.06.2020 15:00:00 26,6 7,1 8 5 29 15 S 1014,4 54 60 0,0
02.06.2020 14:00:00 26,1 8,6 10 5 27 15 N 1015,1 36 60 0,0
02.06.2020 13:00:00 26,1 8,6 9 5 23 12 ENE 1015,9 52 60 0,0
02.06.2020 12:00:00 25,1 10,2 13 7 23 12 ENE 1016,4 49 60 0,0
02.06.2020 11:00:00 23,2 9,6 8 4 19 10 ENE 1016,9 18 60 0,0
02.06.2020 10:00:00 21,3 10,1 10 5 21 11 ENE 1017,5 28 60 0,0
02.06.2020 09:00:00 19,2 9,1 12 7 18 10 ENE 1017,8 38 60 0,0
02.06.2020 08:00:00 15,7 8,9 8 4 11 6 N 1018,2 25 60 0,0
02.06.2020 07:00:00 13,8 8,2 6 3 10 5 NE 1018,3 39 58 0,0
02.06.2020 06:00:00 12,7 7,6 6 3 10 6 NNE 1018,5 44 0 0,0
02.06.2020 05:00:00 12,3 7,6 5 3 8 4 NW 1018,4 47 0 0,0
02.06.2020 04:00:00 12,5 7,4 7 4 9 5 NNE 1018,3 55 0 0,0
02.06.2020 03:00:00 13,9 8,1 5 3 9 5 N 1018,2 55 0 0,0
02.06.2020 02:00:00 14,2 7,9 3 2 19 10 N 1018,4 51 0 0,0
02.06.2020 01:00:00 15,7 8,7 13 7 20 11 ENE 1018,4 53 0 0,0
02.06.2020 00:00:00 16,3 8,8 17 9 23 12 ENE 1018,3 57 0 0,0
01.06.2020 23:00:00 16,5 8,2 15 8 19 10 ENE 1018,2 58 0 0,0
01.06.2020 22:00:00 18,2 7,9 16 9 19 10 E 1017,9 60 3 0,0
01.06.2020 21:00:00 21,5 7,7 14 7 24 13 E 1017,1 60 60 0,0
01.06.2020 20:00:00 24,6 7,7 20 11 35 19 ENE 1016,7 51 60 0,0
01.06.2020 19:00:00 25,3 6,5 21 11 36 19 ENE 1016,7 38 60 0,0
01.06.2020 18:00:00 26,0 7,1 21 12 35 19 ENE 1016,9 26 60 0,0
01.06.2020 17:00:00 26,1 8,1 21 11 36 20 E 1017,0 24 60 0,0
01.06.2020 16:00:00 26,0 8,5 21 12 46 25 E 1017,2 21 60 0,0
01.06.2020 15:00:00 25,7 9,1 29 16 49 27 E 1017,4 21 60 0,0
01.06.2020 14:00:00 24,6 9,3 31 17 48 26 E 1017,8 23 60 0,0
01.06.2020 13:00:00 24,0 9,6 29 16 45 25 E 1018,1 28 60 0,0
01.06.2020 12:00:00 22,4 9,2 27 15 47 25 E 1018,6 34 60 0,0
01.06.2020 11:00:00 20,5 8,8 24 13 40 22 ENE 1019,1 34 60 0,0
01.06.2020 10:00:00 18,8 7,9 25 14 43 23 E 1019,2 36 60 0,0
01.06.2020 09:00:00 17,0 7,1 24 13 39 21 E 1019,4 37 60 0,0
01.06.2020 08:00:00 14,8 6,6 23 12 32 18 ENE 1019,3 42 60 0,0
01.06.2020 07:00:00 12,4 6,2 16 9 22 12 NE 1019,6 45 57 0,0
01.06.2020 06:00:00 10,2 5,4 6 3 18 10 N 1019,9 52 0 0,0
01.06.2020 05:00:00 10,5 5,0 9 5 19 10 E 1019,9 60 0 0,0
01.06.2020 04:00:00 11,4 5,0 14 8 20 11 E 1020,0 60 0 0,0
01.06.2020 03:00:00 12,3 5,2 13 7 29 16 E 1019,9 60 0 0,0
01.06.2020 02:00:00 12,8 5,7 16 9 27 14 E 1019,9 60 0 0,0
01.06.2020 01:00:00 13,0 6,1 16 9 24 13 E 1020,0 60 0 0,0
01.06.2020 00:00:00 12,6 6,0 19 10 25 13 ENE 1019,9 59 0 0,0
31.05.2020 23:00:00 13,4 6,0 15 8 18 10 ENE 1019,9 60 0 0,0
31.05.2020 22:00:00 13,9 6,0 15 8 18 10 ENE 1019,7 56 2 0,0
31.05.2020 21:00:00 16,8 5,7 13 7 29 16 ENE 1019,0 60 36 0,0
31.05.2020 20:00:00 19,7 5,0 24 13 41 22 E 1018,4 51 60 0,0
31.05.2020 19:00:00 20,8 3,9 22 12 39 21 ENE 1018,1 44 54 0,0
31.05.2020 18:00:00 21,4 4,0 23 12 35 19 E 1018,1 40 60 0,0
31.05.2020 17:00:00 21,0 4,1 19 10 42 23 ENE 1018,3 43 60 0,0
31.05.2020 16:00:00 20,8 3,9 18 10 44 24 ENE 1018,6 48 56 0,0
31.05.2020 15:00:00 20,9 5,7 20 11 40 22 E 1018,6 44 43 0,0
31.05.2020 14:00:00 18,8 4,2 21 11 37 20 ENE 1019,2 47 34 0,0
31.05.2020 13:00:00 19,2 4,9 22 12 43 23 ENE 1019,4 35 39 0,0
31.05.2020 12:00:00 18,8 4,5 24 13 45 24 NE 1019,6 60 53 0,0
31.05.2020 11:00:00 18,1 3,5 24 13 44 24 ENE 1020,0 36 60 0,0
31.05.2020 10:00:00 17,1 4,7 21 12 36 19 E 1020,1 41 60 0,0
31.05.2020 09:00:00 15,4 4,4 23 12 37 20 ENE 1020,3 50 60 0,0
31.05.2020 08:00:00 13,2 4,3 16 9 29 16 ENE 1020,3 60 60 0,0
31.05.2020 07:00:00 10,6 4,5 13 7 20 11 ENE 1020,6 34 56 0,0
31.05.2020 06:00:00 8,5 3,7 14 8 21 11 ENE 1020,7 50 0 0,0
31.05.2020 05:00:00 8,2 3,4 14 8 20 11 ENE 1020,6 52 0 0,0
31.05.2020 04:00:00 8,9 3,5 16 8 19 10 ENE 1020,5 49 0 0,0
31.05.2020 03:00:00 10,1 3,6 14 8 19 10 ENE 1020,8 59 0 0,0
31.05.2020 02:00:00 10,3 3,8 15 8 20 11 ENE 1020,7 60 0 0,0
31.05.2020 01:00:00 12,7 3,4 17 9 27 15 E 1020,6 60 0 0,0
31.05.2020 00:00:00 14,4 3,2 21 11 32 18 E 1020,3 60 0 0,0
30.05.2020 23:00:00 14,7 3,5 17 9 27 15 E 1020,2 60 0 0,0
30.05.2020 22:00:00 15,7 3,5 17 9 32 17 ENE 1019,9 60 1 0,0
30.05.2020 21:00:00 18,3 2,6 19 10 35 19 ENE 1019,0 55 60 0,0
30.05.2020 20:00:00 20,4 2,7 23 13 42 23 ENE 1018,6 40 60 0,0
30.05.2020 19:00:00 21,6 3,7 27 14 42 23 NE 1018,5 35 60 0,0
30.05.2020 18:00:00 22,0 2,6 28 15 46 25 ENE 1018,7 42 60 0,0
30.05.2020 17:00:00 21,4 3,1 22 12 49 27 ENE 1018,9 42 44 0,0
30.05.2020 16:00:00 21,3 3,9 21 11 44 24 ENE 1019,4 54 36 0,0
30.05.2020 15:00:00 22,1 5,1 23 12 41 22 ENE 1019,7 36 37 0,0
30.05.2020 14:00:00 21,4 4,5 26 14 44 24 ENE 1020,0 31 58 0,0
30.05.2020 13:00:00 20,7 5,1 26 14 53 29 ENE 1020,5 20 60 0,0
30.05.2020 12:00:00 20,3 3,5 27 14 45 24 E 1021,0 38 60 0,0
30.05.2020 11:00:00 19,2 4,5 21 11 36 20 E 1021,3 46 60 0,0
30.05.2020 10:00:00 18,3 5,8 20 11 32 17 ENE 1021,5 53 60 0,0
30.05.2020 09:00:00 16,1 5,7 17 9 28 15 ENE 1021,9 59 60 0,0
30.05.2020 08:00:00 13,9 5,3 18 10 27 15 ENE 1022,0 47 60 0,0
30.05.2020 07:00:00 11,5 4,7 16 8 25 13 ENE 1022,2 46 56 0,0
30.05.2020 06:00:00 9,0 4,2 17 9 26 14 ENE 1022,2 42 0 0,0
30.05.2020 05:00:00 9,7 4,3 17 9 27 15 ENE 1022,0 43 0 0,0
30.05.2020 04:00:00 10,3 4,2 19 11 28 15 ENE 1022,1 48 0 0,0
30.05.2020 03:00:00 10,9 4,4 16 9 24 13 ENE 1022,0 49 0 0,0
30.05.2020 02:00:00 11,2 4,6 14 8 20 11 ENE 1022,2 42 0 0,0
30.05.2020 01:00:00 11,6 4,6 13 7 18 10 ENE 1022,2 40 0 0,0
30.05.2020 00:00:00 12,1 4,8 13 7 18 10 ENE 1022,3 41 0 0,0
29.05.2020 23:00:00 13,3 4,7 15 8 20 11 ENE 1022,2 42 0 0,0
29.05.2020 22:00:00 15,3 4,6 15 8 21 11 ENE 1021,8 42 0 0,0
29.05.2020 21:00:00 18,3 4,8 14 7 29 16 ENE 1021,3 43 60 0,0
29.05.2020 20:00:00 20,5 4,1 19 11 36 19 ENE 1021,3 42 60 0,0
29.05.2020 19:00:00 21,3 4,4 23 12 41 22 ENE 1021,4 34 57 0,0
29.05.2020 18:00:00 21,9 4,4 23 13 44 24 ENE 1021,6 31 58 0,0
29.05.2020 17:00:00 22,2 4,7 21 11 42 23 ENE 1021,8 30 57 0,0
29.05.2020 16:00:00 22,4 5,3 22 12 41 22 ENE 1022,6 28 60 0,0
29.05.2020 15:00:00 21,6 4,6 21 12 46 25 NE 1023,3 31 60 0,0
29.05.2020 14:00:00 20,9 4,0 25 14 49 26 E 1024,0 32 60 0,0
29.05.2020 13:00:00 20,6 5,0 24 13 40 21 ENE 1024,6 28 57 0,0
29.05.2020 12:00:00 19,3 5,4 25 14 41 22 E 1025,3 30 60 0,0
29.05.2020 11:00:00 18,5 4,6 25 14 45 24 E 1025,8 33 60 0,0
29.05.2020 10:00:00 17,9 5,1 29 15 46 25 E 1025,8 37 60 0,0
29.05.2020 09:00:00 15,9 4,6 18 10 27 15 ENE 1026,3 40 60 0,0
29.05.2020 08:00:00 13,7 4,3 15 8 24 13 ENE 1026,8 40 60 0,0
29.05.2020 07:00:00 11,5 3,5 16 8 23 12 E 1026,9 44 55 0,0
29.05.2020 06:00:00 8,5 2,7 18 10 22 12 E 1026,9 42 0 0,0
29.05.2020 05:00:00 8,8 2,4 16 9 29 16 ENE 1026,8 50 0 0,0
29.05.2020 04:00:00 10,1 2,2 18 10 27 14 NE 1027,0 52 0 0,0
29.05.2020 03:00:00 10,6 1,7 16 9 24 13 ENE 1027,1 47 0 0,0
29.05.2020 02:00:00 11,5 1,7 19 10 23 13 ENE 1027,2 45 0 0,0
29.05.2020 01:00:00 11,2 3,0 13 7 20 11 ENE 1027,5 39 0 0,0
29.05.2020 00:00:00 12,0 3,5 14 8 19 10 ENE 1027,5 36 0 0,0
28.05.2020 23:00:00 13,2 3,5 10 6 20 11 ENE 1027,2 41 0 0,0
28.05.2020 22:00:00 14,4 3,5 16 9 19 11 E 1026,9 40 0 0,0
28.05.2020 21:00:00 17,6 5,2 14 8 29 16 ENE 1026,3 42 60 0,0
28.05.2020 20:00:00 21,1 3,3 19 11 35 19 ENE 1026,0 33 60 0,0
28.05.2020 19:00:00 22,5 3,6 23 12 36 19 NE 1025,9 30 60 0,0
28.05.2020 18:00:00 22,9 4,9 21 11 37 20 ENE 1026,2 31 60 0,0
28.05.2020 17:00:00 22,2 4,7 26 14 39 21 NE 1026,6 20 53 0,0
28.05.2020 16:00:00 22,8 6,5 20 11 40 22 NE 1027,0 31 53 0,0
28.05.2020 15:00:00 22,6 6,8 18 10 50 27 NE 1027,5 31 50 0,0
28.05.2020 14:00:00 21,6 9,5 18 10 36 20 NNE 1028,0 20 30 0,0
28.05.2020 13:00:00 20,6 10,4 19 10 34 19 NE 1028,6 30 29 0,0
28.05.2020 12:00:00 20,5 10,6 19 10 31 17 NE 1028,8 21 55 0,0
28.05.2020 11:00:00 20,0 11,0 16 9 32 17 ENE 1029,1 33 60 0,0
28.05.2020 10:00:00 18,9 10,7 19 10 29 16 NE 1029,3 30 60 0,0
28.05.2020 09:00:00 17,1 10,2 17 9 29 16 NNE 1029,5 14 60 0,0
28.05.2020 08:00:00 14,7 10,3 13 7 18 10 N 1029,7 19 60 0,0
28.05.2020 07:00:00 12,8 9,2 8 4 13 7 N 1030,0 16 6 0,0
28.05.2020 06:00:00 12,2 9,0 9 5 14 7 NNE 1029,9 18 0 0,0
28.05.2020 05:00:00 12,2 8,1 9 5 13 7 NNE 1029,8 22 0 0,0
28.05.2020 04:00:00 12,7 7,8 6 3 14 8 NNE 1029,7 36 0 0,0
28.05.2020 03:00:00 12,7 7,8 11 6 22 12 NNE 1030,1 36 0 0,0
28.05.2020 02:00:00 13,7 7,9 15 8 19 10 ENE 1030,1 32 0 0,0

tt = Température de l'air
td = dewpoint
ff = Vitesse du vent
fx = gusts
dd = Direction du vent
ppp = reduced air pressure
vv = visibility
sd = Ensoleillement
rr = Quantités de précipitations

stations d'obs. à proximité